Time,TemperatureF,DewpointF,PressureIn,WindDirection,WindDirectionDegrees,WindSpeedMPH,WindSpeedGustMPH,Humidity,HourlyPrecipIn,Conditions,Clouds,dailyrainin,SoftwareType,DateUTC
2018-01-18 00:04:00,18.6,11.4,30.14,WNW,296,13.0,21.0,73,0.00,,,0.00,Wunderground v.1.15,2018-01-18 06:04:00,
2018-01-18 00:09:00,18.6,11.4,30.14,West,280,28.0,28.0,73,0.00,,,0.00,Wunderground v.1.15,2018-01-18 06:09:00,
2018-01-18 00:15:00,18.6,11.4,30.14,West,259,16.0,28.0,73,0.00,,,0.00,Wunderground v.1.15,2018-01-18 06:15:00,
2018-01-18 00:20:00,18.6,11.4,30.14,West,265,14.0,16.0,73,0.00,,,0.00,Wunderground v.1.15,2018-01-18 06:20:00,
2018-01-18 00:25:00,18.5,11.3,30.14,WSW,244,12.0,16.0,73,0.00,,,0.00,Wunderground v.1.15,2018-01-18 06:25:00,
2018-01-18 00:30:00,18.6,11.4,30.14,West,267,16.0,16.0,73,0.00,,,0.00,Wunderground v.1.15,2018-01-18 06:30:00,
2018-01-18 00:36:00,18.7,11.5,30.14,West,261,17.0,18.0,73,0.00,,,0.00,Wunderground v.1.15,2018-01-18 06:36:00,
2018-01-18 00:43:00,18.7,11.5,30.14,West,265,23.0,23.0,73,0.00,,,0.00,Wunderground v.1.15,2018-01-18 06:43:00,
2018-01-18 00:48:00,18.8,11.6,30.14,West,274,21.0,23.0,73,0.00,,,0.00,Wunderground v.1.15,2018-01-18 06:48:00,
2018-01-18 00:54:00,18.8,11.6,30.14,West,269,23.0,23.0,73,0.00,,,0.00,Wunderground v.1.15,2018-01-18 06:54:00,
2018-01-18 00:59:00,18.7,11.5,30.13,West,263,15.0,15.0,73,0.00,,,0.00,Wunderground v.1.15,2018-01-18 06:59:00,
2018-01-18 01:05:00,18.8,11.6,30.13,West,262,13.0,21.0,73,0.00,,,0.00,Wunderground v.1.15,2018-01-18 07:05:00,
2018-01-18 01:10:00,18.7,11.5,30.13,West,272,10.0,16.0,73,0.00,,,0.00,Wunderground v.1.15,2018-01-18 07:10:00,
2018-01-18 01:15:00,18.7,11.5,30.13,WNW,288,12.0,16.0,73,0.00,,,0.00,Wunderground v.1.15,2018-01-18 07:15:00,
2018-01-18 01:21:00,18.9,11.7,30.13,West,279,8.0,23.0,73,0.00,,,0.00,Wunderground v.1.15,2018-01-18 07:21:00,
2018-01-18 01:26:00,18.8,11.6,30.13,West,269,11.0,23.0,73,0.00,,,0.00,Wunderground v.1.15,2018-01-18 07:26:00,
2018-01-18 01:31:00,18.8,11.6,30.13,WNW,286,15.0,18.0,73,0.00,,,0.00,Wunderground v.1.15,2018-01-18 07:31:00,
2018-01-18 01:38:00,18.8,11.6,30.13,West,280,10.0,19.0,73,0.00,,,0.00,Wunderground v.1.15,2018-01-18 07:38:00,
2018-01-18 01:43:00,18.8,11.6,30.12,West,273,20.0,22.0,73,0.00,,,0.00,Wunderground v.1.15,2018-01-18 07:43:00,
2018-01-18 01:49:00,18.9,11.7,30.12,WNW,288,15.0,16.0,73,0.00,,,0.00,Wunderground v.1.15,2018-01-18 07:49:00,
2018-01-18 01:54:00,18.8,11.6,30.12,West,269,11.0,16.0,73,0.00,,,0.00,Wunderground v.1.15,2018-01-18 07:54:00,
2018-01-18 01:59:00,18.8,11.6,30.13,West,268,13.0,13.0,73,0.00,,,0.00,Wunderground v.1.15,2018-01-18 07:59:00,
2018-01-18 02:04:00,18.8,11.6,30.13,WNW,287,19.0,23.0,73,0.00,,,0.00,Wunderground v.1.15,2018-01-18 08:04:00,
2018-01-18 02:09:00,18.8,11.6,30.13,WNW,289,19.0,19.0,73,0.00,,,0.00,Wunderground v.1.15,2018-01-18 08:09:00,
2018-01-18 02:14:00,18.7,11.5,30.13,West,279,22.0,22.0,73,0.00,,,0.00,Wunderground v.1.15,2018-01-18 08:14:00,
2018-01-18 02:19:00,18.7,11.8,30.13,WNW,288,11.0,14.0,74,0.00,,,0.00,Wunderground v.1.15,2018-01-18 08:19:00,
2018-01-18 02:24:00,18.7,11.8,30.13,West,277,21.0,23.0,74,0.00,,,0.00,Wunderground v.1.15,2018-01-18 08:24:00,